RYR5687 EGPH-EDLV

Flight info

Callsign RYR5687
Flight time 1h 20m
Altitude 39000
Route TLA Y96 OTBUN DCT ERKIT N110 DOLAS L603 LAMSO DCT EVELI DCT PAM P62 PISAP Z850 SOBTU SOBTU1W
Aircraft B38M/M-SDE1FGHILORVWXY/HB1

Departure

Time 2026-04-21 14:46
Airport Edinburgh Airport (EGPH)

Arrival

Time 2026-04-21 16:07
Airport Weeze (Niederrhein) Airport (EDLV)
Time Latitude Longitude Altitude Speed Heading
2026-04-21 14:20 55.94895 -3.35998 119 ft 0 kts 254°
2026-04-21 14:38 55.94899 -3.35972 115 ft 4 kts 254°
2026-04-21 14:38 55.94906 -3.35925 114 ft 4 kts 255°
2026-04-21 14:38 55.94911 -3.35890 115 ft 4 kts 255°
2026-04-21 14:39 55.94917 -3.35843 116 ft 4 kts 265°
2026-04-21 14:39 55.94914 -3.35799 116 ft 2 kts 297°
2026-04-21 14:39 55.94913 -3.35795 116 ft 0 kts 298°
2026-04-21 14:41 55.94913 -3.35796 116 ft 1 kts 298°
2026-04-21 14:41 55.94924 -3.35826 117 ft 6 kts 309°
2026-04-21 14:41 55.94975 -3.35858 117 ft 10 kts
2026-04-21 14:41 55.95043 -3.35847 118 ft 9 kts 325°
2026-04-21 14:42 55.95084 -3.35964 118 ft 13 kts 297°
2026-04-21 14:42 55.95107 -3.36077 119 ft 1 kts 288°
2026-04-21 14:42 55.95109 -3.36083 119 ft 2 kts 288°
2026-04-21 14:42 55.95121 -3.36149 117 ft 9 kts 289°
2026-04-21 14:43 55.95133 -3.36277 118 ft 12 kts 254°
2026-04-21 14:43 55.95084 -3.36429 118 ft 16 kts 239°
2026-04-21 14:43 55.95018 -3.36626 114 ft 20 kts 239°
2026-04-21 14:43 55.94939 -3.36859 115 ft 24 kts 239°
2026-04-21 14:44 55.94847 -3.37128 115 ft 27 kts 239°
2026-04-21 14:44 55.94751 -3.37412 116 ft 26 kts 239°
2026-04-21 14:44 55.94662 -3.37676 115 ft 25 kts 239°
2026-04-21 14:44 55.94598 -3.37867 117 ft 10 kts 239°
2026-04-21 14:45 55.94614 -3.37971 116 ft 11 kts 328°
2026-04-21 14:45 55.94686 -3.38050 114 ft 11 kts 328°
2026-04-21 14:45 55.94722 -3.38075 115 ft 0 kts 37°
2026-04-21 14:45 55.94752 -3.37982 116 ft 30 kts 60°
2026-04-21 14:46 55.94995 -3.37261 114 ft 102 kts 59°
2026-04-21 14:46 55.95453 -3.35940 316 ft 136 kts 59°
2026-04-21 14:46 55.95947 -3.34447 989 ft 142 kts 52°
2026-04-21 14:46 55.96681 -3.33301 1821 ft 144 kts 47°
2026-04-21 14:47 55.97404 -3.31911 2484 ft 164 kts 48°
2026-04-21 14:47 55.98324 -3.30452 3138 ft 189 kts 44°
2026-04-21 14:47 55.99379 -3.28802 3843 ft 213 kts 45°
2026-04-21 14:47 56.00539 -3.26960 4618 ft 233 kts 45°
2026-04-21 14:48 56.01802 -3.24944 5459 ft 249 kts 45°
2026-04-21 14:48 56.03095 -3.22863 6621 ft 252 kts 45°
2026-04-21 14:48 56.04386 -3.20694 7619 ft 258 kts 52°
2026-04-21 14:48 56.05344 -3.18007 8681 ft 257 kts 70°
2026-04-21 14:49 56.05759 -3.14885 9691 ft 261 kts 88°
2026-04-21 14:49 56.05497 -3.11673 10691 ft 265 kts 110°
2026-04-21 14:49 56.04544 -3.08755 11379 ft 283 kts 130°
2026-04-21 14:49 56.02966 -3.06513 12110 ft 299 kts 149°
2026-04-21 14:50 56.01742 -3.05344 12671 ft 303 kts 145°
2026-04-21 14:50 55.99525 -3.02215 13974 ft 307 kts 138°
2026-04-21 14:50 55.97821 -2.99845 14850 ft 314 kts 145°
2026-04-21 14:50 55.95780 -2.98357 15755 ft 323 kts 165°
2026-04-21 14:51 55.93510 -2.98195 16615 ft 334 kts 184°
2026-04-21 14:51 55.91260 -2.99422 17485 ft 345 kts 204°
2026-04-21 14:51 55.89125 -3.01421 18294 ft 348 kts 197°
2026-04-21 14:51 55.86770 -3.02050 19049 ft 342 kts 171°
2026-04-21 14:52 55.84540 -3.00761 19685 ft 338 kts 144°
2026-04-21 14:52 55.82730 -2.98114 20361 ft 339 kts 137°
2026-04-21 14:52 55.80784 -2.95655 21016 ft 345 kts 144°
2026-04-21 14:52 55.78747 -2.93357 21707 ft 349 kts 146°
2026-04-21 14:53 55.76666 -2.91139 22394 ft 353 kts 147°
2026-04-21 14:53 55.74562 -2.88971 23061 ft 356 kts 147°
2026-04-21 14:53 55.72394 -2.86773 23742 ft 360 kts 148°
2026-04-21 14:53 55.70205 -2.84583 24369 ft 363 kts 148°
2026-04-21 14:54 55.67988 -2.82382 24916 ft 367 kts 148°
2026-04-21 14:54 55.65747 -2.80165 25478 ft 370 kts 148°
2026-04-21 14:54 55.63487 -2.77934 26027 ft 373 kts 148°
2026-04-21 14:54 55.61206 -2.75690 26585 ft 376 kts 149°
2026-04-21 14:55 55.58907 -2.73424 27090 ft 380 kts 149°
2026-04-21 14:55 55.56581 -2.71145 27628 ft 383 kts 149°
2026-04-21 14:55 55.54253 -2.68854 28126 ft 386 kts 149°
2026-04-21 14:55 55.51884 -2.66527 28613 ft 390 kts 149°
2026-04-21 14:56 55.49505 -2.64203 29097 ft 393 kts 150°
2026-04-21 14:56 55.47097 -2.61849 29537 ft 398 kts 150°
2026-04-21 14:56 55.44662 -2.59472 30024 ft 401 kts 150°
2026-04-21 14:56 55.42216 -2.57086 30463 ft 404 kts 150°
2026-04-21 14:57 55.39751 -2.54670 30869 ft 407 kts 150°
2026-04-21 14:57 55.37254 -2.52245 31177 ft 412 kts 151°
2026-04-21 14:57 55.34735 -2.49800 31521 ft 416 kts 151°
2026-04-21 14:57 55.32185 -2.47328 31810 ft 421 kts 151°
2026-04-21 14:58 55.29607 -2.44832 32140 ft 425 kts 151°
2026-04-21 14:58 55.27096 -2.42077 32435 ft 429 kts 142°
2026-04-21 14:58 55.24723 -2.38862 32741 ft 433 kts 143°
2026-04-21 14:58 55.22309 -2.35671 33041 ft 437 kts 143°
2026-04-21 14:59 55.19901 -2.32481 33343 ft 441 kts 143°
2026-04-21 14:59 55.17597 -2.29427 33611 ft 445 kts 143°
2026-04-21 14:59 55.15145 -2.26179 33896 ft 449 kts 143°
2026-04-21 14:59 55.12643 -2.22878 34189 ft 453 kts 143°
2026-04-21 15:00 55.10119 -2.19548 34470 ft 457 kts 143°
2026-04-21 15:00 55.07560 -2.16177 34693 ft 461 kts 143°
2026-04-21 15:00 55.05001 -2.12812 35022 ft 462 kts 142°
2026-04-21 15:00 55.02423 -2.09422 35328 ft 465 kts 143°
2026-04-21 15:01 54.99831 -2.06035 35714 ft 465 kts 143°
2026-04-21 15:01 54.97250 -2.02649 36105 ft 464 kts 143°
2026-04-21 15:01 54.94667 -1.99288 36457 ft 464 kts 143°
2026-04-21 15:01 54.92081 -1.95917 36851 ft 463 kts 143°
2026-04-21 15:02 54.89505 -1.92553 37237 ft 463 kts 143°
2026-04-21 15:02 54.86982 -1.89267 37591 ft 463 kts 143°
2026-04-21 15:02 54.84395 -1.85939 37980 ft 461 kts 143°
2026-04-21 15:02 54.81818 -1.82624 38312 ft 461 kts 143°
2026-04-21 15:03 54.79256 -1.79278 38665 ft 461 kts 143°
2026-04-21 15:03 54.76691 -1.75948 38938 ft 462 kts 143°
2026-04-21 15:03 54.74145 -1.72662 39091 ft 460 kts 143°
2026-04-21 15:03 54.71585 -1.69376 39222 ft 459 kts 142°
2026-04-21 15:04 54.69020 -1.66069 39348 ft 459 kts 143°
2026-04-21 15:04 54.66451 -1.62772 39464 ft 460 kts 143°
2026-04-21 15:04 54.63885 -1.59485 39487 ft 460 kts 143°
2026-04-21 15:05 54.58744 -1.52914 39480 ft 458 kts 143°
2026-04-21 15:05 54.51071 -1.43146 39485 ft 459 kts 143°
2026-04-21 15:06 54.45905 -1.36678 39475 ft 459 kts 142°
2026-04-21 15:06 54.40776 -1.30140 39474 ft 459 kts 143°
2026-04-21 15:07 54.35623 -1.23629 39452 ft 460 kts 143°
2026-04-21 15:07 54.30463 -1.17141 39458 ft 461 kts 143°
2026-04-21 15:08 54.25280 -1.10652 39455 ft 461 kts 143°
2026-04-21 15:08 54.20102 -1.04170 39448 ft 461 kts 143°
2026-04-21 15:09 54.15695 -0.99057 39455 ft 462 kts 144°
2026-04-21 15:09 54.09706 -0.91345 39450 ft 462 kts 143°
2026-04-21 15:10 54.05387 -0.85985 39452 ft 462 kts 144°
2026-04-21 15:10 54.00139 -0.79661 39449 ft 463 kts 146°
2026-04-21 15:11 53.94833 -0.73476 39451 ft 462 kts 144°
2026-04-21 15:11 53.89541 -0.67246 39440 ft 463 kts 145°
2026-04-21 15:12 53.84234 -0.61057 39435 ft 463 kts 145°
2026-04-21 15:12 53.78905 -0.54879 39436 ft 464 kts 146°
2026-04-21 15:13 53.73598 -0.48679 39433 ft 464 kts 144°
2026-04-21 15:13 53.68264 -0.42515 39431 ft 464 kts 146°
2026-04-21 15:14 53.62929 -0.36379 39446 ft 464 kts 145°
2026-04-21 15:14 53.57772 -0.29951 39398 ft 463 kts 132°
2026-04-21 15:15 53.55730 -0.25797 39500 ft 461 kts 127°
2026-04-21 15:15 53.53766 -0.21522 39414 ft 464 kts 127°
2026-04-21 15:15 53.49802 -0.12863 39421 ft 464 kts 126°
2026-04-21 15:16 53.45914 -0.04199 39429 ft 465 kts 126°
2026-04-21 15:16 53.42030 0.04485 39411 ft 465 kts 127°
2026-04-21 15:17 53.38128 0.13029 39414 ft 465 kts 126°
2026-04-21 15:17 53.34215 0.21662 39411 ft 466 kts 127°
2026-04-21 15:18 53.30289 0.30254 39410 ft 465 kts 127°
2026-04-21 15:18 53.26346 0.38816 39440 ft 465 kts 127°
2026-04-21 15:19 53.22393 0.47347 39414 ft 464 kts 127°
2026-04-21 15:19 53.18443 0.55910 39415 ft 465 kts 127°
2026-04-21 15:20 53.14513 0.64466 39404 ft 465 kts 127°
2026-04-21 15:20 53.10539 0.72976 39412 ft 464 kts 127°
2026-04-21 15:21 53.06569 0.81477 39421 ft 466 kts 126°
2026-04-21 15:21 53.02609 0.90022 39401 ft 466 kts 127°
2026-04-21 15:22 52.98616 0.98485 39402 ft 466 kts 124°
2026-04-21 15:22 52.97174 1.03231 39355 ft 457 kts 102°
2026-04-21 15:22 52.96752 1.08419 39423 ft 455 kts 92°
2026-04-21 15:23 52.96267 1.13635 39389 ft 460 kts 103°
2026-04-21 15:23 52.95456 1.18772 39384 ft 462 kts 99°
2026-04-21 15:23 52.94423 1.29245 39394 ft 461 kts 98°
2026-04-21 15:24 52.93204 1.39672 39391 ft 460 kts 101°
2026-04-21 15:24 52.92016 1.50000 39369 ft 460 kts 99°
2026-04-21 15:25 52.90791 1.60391 39386 ft 460 kts 99°
2026-04-21 15:25 52.89549 1.70782 39391 ft 459 kts 99°
2026-04-21 15:26 52.88317 1.81157 39392 ft 459 kts 99°
2026-04-21 15:26 52.87040 1.91509 39388 ft 458 kts 99°
2026-04-21 15:27 52.85814 2.01866 39365 ft 457 kts 99°
2026-04-21 15:27 52.84499 2.12171 39388 ft 458 kts 99°
2026-04-21 15:28 52.83175 2.22467 39393 ft 457 kts 99°
2026-04-21 15:28 52.81909 2.32768 39378 ft 457 kts 99°
2026-04-21 15:29 52.80610 2.43057 39383 ft 457 kts 99°
2026-04-21 15:29 52.79296 2.53336 39373 ft 457 kts 99°
2026-04-21 15:30 52.77974 2.63595 39377 ft 457 kts 99°
2026-04-21 15:30 52.76651 2.73778 39346 ft 457 kts 100°
2026-04-21 15:31 52.75324 2.84000 39347 ft 455 kts 100°
2026-04-21 15:31 52.73972 2.94253 39344 ft 455 kts 100°
2026-04-21 15:32 52.72134 3.04240 39390 ft 458 kts 109°
2026-04-21 15:32 52.69855 3.14068 39361 ft 458 kts 108°
2026-04-21 15:33 52.67552 3.23842 39353 ft 458 kts 109°
2026-04-21 15:33 52.65233 3.33628 39352 ft 458 kts 109°
2026-04-21 15:34 52.63218 3.43546 39351 ft 456 kts 104°
2026-04-21 15:34 52.61472 3.53601 39349 ft 457 kts 103°
2026-04-21 15:35 52.59736 3.63657 39348 ft 457 kts 103°
2026-04-21 15:35 52.57992 3.73697 39343 ft 456 kts 103°
2026-04-21 15:36 52.56249 3.83662 39344 ft 456 kts 103°
2026-04-21 15:36 52.54489 3.93685 39344 ft 456 kts 104°
2026-04-21 15:37 52.52723 4.03689 39338 ft 456 kts 103°
2026-04-21 15:37 52.50948 4.13670 39334 ft 455 kts 104°
2026-04-21 15:38 52.49169 4.23635 39317 ft 455 kts 104°
2026-04-21 15:38 52.47382 4.33584 39318 ft 455 kts 104°
2026-04-21 15:39 52.45588 4.43517 39091 ft 449 kts 104°
2026-04-21 15:39 52.44698 4.48424 38300 ft 451 kts 104°
2026-04-21 15:39 52.43801 4.53359 37553 ft 452 kts 104°
2026-04-21 15:40 52.42904 4.58278 37078 ft 447 kts 104°
2026-04-21 15:40 52.42017 4.63131 36633 ft 441 kts 104°
2026-04-21 15:40 52.41140 4.67919 36124 ft 438 kts 104°
2026-04-21 15:40 52.40265 4.72677 35604 ft 435 kts 104°
2026-04-21 15:41 52.39394 4.77402 35185 ft 430 kts 104°
2026-04-21 15:41 52.38520 4.82141 34821 ft 438 kts 104°
2026-04-21 15:41 52.37632 4.86934 34534 ft 442 kts 104°
2026-04-21 15:41 52.36738 4.91750 34271 ft 442 kts 104°
2026-04-21 15:42 52.35846 4.96543 33689 ft 438 kts 104°
2026-04-21 15:42 52.34963 5.01285 33049 ft 435 kts 104°
2026-04-21 15:42 52.34082 5.06006 32474 ft 431 kts 105°
2026-04-21 15:42 52.33093 5.10607 31877 ft 429 kts 112°
2026-04-21 15:43 52.31817 5.14995 31311 ft 425 kts 113°
2026-04-21 15:43 52.30573 5.19355 30765 ft 420 kts 113°
2026-04-21 15:43 52.29341 5.23653 30212 ft 416 kts 113°
2026-04-21 15:43 52.28120 5.27901 29588 ft 412 kts 113°
2026-04-21 15:44 52.26910 5.32103 29062 ft 406 kts 113°
2026-04-21 15:44 52.25714 5.36248 28548 ft 400 kts 113°
2026-04-21 15:44 52.24551 5.40272 28047 ft 395 kts 113°
2026-04-21 15:44 52.23383 5.44308 27535 ft 390 kts 113°
2026-04-21 15:45 52.22232 5.48275 27057 ft 385 kts 113°
2026-04-21 15:45 52.21091 5.52202 26564 ft 381 kts 113°
2026-04-21 15:45 52.19962 5.56081 26073 ft 377 kts 113°
2026-04-21 15:45 52.18842 5.59924 25615 ft 373 kts 113°
2026-04-21 15:46 52.17732 5.63726 25157 ft 369 kts 113°
2026-04-21 15:46 52.16636 5.67474 24713 ft 366 kts 113°
2026-04-21 15:46 52.15543 5.71208 24275 ft 363 kts 113°
2026-04-21 15:46 52.14461 5.74901 23837 ft 360 kts 112°
2026-04-21 15:47 52.13389 5.78555 23304 ft 357 kts 113°
2026-04-21 15:47 52.12321 5.82187 22856 ft 353 kts 113°
2026-04-21 15:47 52.11270 5.85763 22475 ft 348 kts 112°
2026-04-21 15:47 52.10232 5.89286 22085 ft 343 kts 113°
2026-04-21 15:48 52.09209 5.92757 21694 ft 339 kts 112°
2026-04-21 15:48 52.08194 5.96191 21300 ft 335 kts 113°
2026-04-21 15:48 52.07187 5.99599 20920 ft 332 kts 112°
2026-04-21 15:48 52.06193 6.02954 20542 ft 328 kts 112°
2026-04-21 15:49 52.05205 6.06285 20169 ft 325 kts 112°
2026-04-21 15:49 52.04230 6.09568 19796 ft 322 kts 113°
2026-04-21 15:49 52.03255 6.12846 19421 ft 320 kts 113°
2026-04-21 15:49 52.02290 6.16087 19044 ft 318 kts 113°
2026-04-21 15:50 52.01322 6.19320 18607 ft 318 kts 113°
2026-04-21 15:50 52.00361 6.22529 18204 ft 316 kts 113°
2026-04-21 15:50 51.99418 6.25674 17807 ft 313 kts 113°
2026-04-21 15:50 51.98457 6.28875 17452 ft 309 kts 113°
2026-04-21 15:51 51.97534 6.31945 17094 ft 306 kts 113°
2026-04-21 15:51 51.96606 6.35027 16742 ft 303 kts 113°
2026-04-21 15:51 51.95686 6.38080 16394 ft 301 kts 113°
2026-04-21 15:51 51.94762 6.41145 16029 ft 305 kts 113°
2026-04-21 15:52 51.93821 6.44256 15661 ft 308 kts 113°
2026-04-21 15:52 51.92966 6.47083 15333 ft 309 kts 113°
2026-04-21 15:52 51.92341 6.49146 15117 ft 308 kts 113°
2026-04-21 15:52 51.91084 6.53293 14631 ft 304 kts 113°
2026-04-21 15:53 51.90118 6.56327 14263 ft 303 kts 120°
2026-04-21 15:53 51.88616 6.58752 13857 ft 309 kts 144°
2026-04-21 15:53 51.86638 6.60138 13508 ft 311 kts 158°
2026-04-21 15:53 51.84602 6.61245 13164 ft 307 kts 157°
2026-04-21 15:54 51.82582 6.62331 12823 ft 304 kts 158°
2026-04-21 15:54 51.80526 6.63134 12440 ft 307 kts 173°
2026-04-21 15:54 51.78427 6.62681 12047 ft 313 kts 195°
2026-04-21 15:54 51.76458 6.61097 11583 ft 318 kts 207°
2026-04-21 15:55 51.74545 6.59297 11158 ft 319 kts 208°
2026-04-21 15:55 51.72636 6.57479 10791 ft 318 kts 209°
2026-04-21 15:55 51.70962 6.55155 10411 ft 320 kts 232°
2026-04-21 15:55 51.70019 6.51983 10246 ft 311 kts 256°
2026-04-21 15:56 51.69770 6.48585 10160 ft 299 kts 267°
2026-04-21 15:56 51.69651 6.45280 9934 ft 293 kts 268°
2026-04-21 15:56 51.69548 6.42003 9563 ft 293 kts 268°
2026-04-21 15:56 51.69454 6.38717 9211 ft 293 kts 268°
2026-04-21 15:57 51.69395 6.36547 8985 ft 292 kts 268°
2026-04-21 15:57 51.69311 6.33273 8646 ft 292 kts 269°
2026-04-21 15:57 51.69227 6.30005 8293 ft 292 kts 269°
2026-04-21 15:57 51.69145 6.26738 7958 ft 292 kts 268°
2026-04-21 15:58 51.69062 6.23473 7606 ft 292 kts 269°
2026-04-21 15:58 51.68951 6.19139 7156 ft 292 kts 269°
2026-04-21 15:58 51.68894 6.16927 6912 ft 293 kts 269°
2026-04-21 15:58 51.68808 6.13645 6560 ft 293 kts 268°
2026-04-21 15:59 51.68722 6.10365 6190 ft 293 kts 269°
2026-04-21 15:59 51.68742 6.07112 5813 ft 287 kts 273°
2026-04-21 15:59 51.68815 6.03954 5471 ft 276 kts 273°
2026-04-21 15:59 51.68876 6.00908 5139 ft 267 kts 274°
2026-04-21 16:00 51.68933 5.97935 4839 ft 264 kts 273°
2026-04-21 16:00 51.68987 5.95020 4543 ft 264 kts 273°
2026-04-21 16:00 51.69044 5.92066 4293 ft 261 kts 274°
2026-04-21 16:00 51.69103 5.89181 4153 ft 254 kts 274°
2026-04-21 16:01 51.69031 5.86380 4012 ft 249 kts 256°
2026-04-21 16:01 51.68190 5.84023 3849 ft 242 kts 221°
2026-04-21 16:01 51.66769 5.82734 3720 ft 229 kts 190°
2026-04-21 16:01 51.65245 5.82413 3674 ft 213 kts 180°
2026-04-21 16:02 51.63811 5.82262 3641 ft 206 kts 179°
2026-04-21 16:02 51.62417 5.82535 3419 ft 199 kts 150°
2026-04-21 16:02 51.61430 5.83931 3206 ft 187 kts 116°
2026-04-21 16:02 51.61051 5.85875 3030 ft 179 kts 94°
2026-04-21 16:03 51.60939 5.87844 2804 ft 175 kts 91°
2026-04-21 16:03 51.60856 5.89761 2668 ft 169 kts 91°
2026-04-21 16:03 51.60790 5.91631 2553 ft 167 kts 90°
2026-04-21 16:03 51.60710 5.93499 2437 ft 167 kts 91°
2026-04-21 16:04 51.60627 5.95329 2260 ft 161 kts 90°
2026-04-21 16:04 51.60584 5.97114 2047 ft 157 kts 89°
2026-04-21 16:04 51.60553 5.98820 1851 ft 153 kts 88°
2026-04-21 16:04 51.60522 6.00541 1629 ft 151 kts 88°
2026-04-21 16:05 51.60493 6.02207 1406 ft 151 kts 88°
2026-04-21 16:05 51.60461 6.03847 1217 ft 142 kts 88°
2026-04-21 16:05 51.60434 6.05365 1049 ft 131 kts 88°
2026-04-21 16:05 51.60403 6.06789 824 ft 125 kts 86°
2026-04-21 16:06 51.60376 6.08181 669 ft 126 kts 88°
2026-04-21 16:06 51.60345 6.09620 490 ft 135 kts 88°
2026-04-21 16:06 51.60305 6.11139 295 ft 134 kts 86°
2026-04-21 16:06 51.60268 6.12604 127 ft 126 kts 85°
2026-04-21 16:07 51.60256 6.13857 120 ft 93 kts 92°
2026-04-21 16:07 51.60242 6.14583 112 ft 48 kts 91°
2026-04-21 16:07 51.60230 6.15117 118 ft 41 kts 92°
2026-04-21 16:07 51.60224 6.15344 117 ft 13 kts 92°
2026-04-21 16:08 51.60158 6.15465 119 ft 10 kts 179°
2026-04-21 16:08 51.60080 6.15463 120 ft 8 kts 182°
2026-04-21 16:08 51.60035 6.15426 116 ft 9 kts 240°
2026-04-21 16:09 51.60032 6.15301 117 ft 14 kts 273°
2026-04-21 16:09 51.60038 6.15114 116 ft 20 kts 272°
2026-04-21 16:09 51.60042 6.14935 115 ft 6 kts 272°
2026-04-21 16:09 51.60044 6.14844 115 ft 5 kts 270°
2026-04-21 16:10 51.60033 6.14811 112 ft 4 kts 218°
2026-04-21 16:10 51.60006 6.14802 115 ft 1 kts 169°
2026-04-21 16:10 51.59998 6.14815 115 ft 1 kts 119°
2026-04-21 16:10 51.59997 6.14820 115 ft 1 kts 106°
2026-04-21 16:11 51.59996 6.14839 114 ft 0 kts 92°
2026-04-21 16:11 51.59996 6.14840 114 ft 1 kts 92°
2026-04-21 16:11 51.59995 6.14862 115 ft 1 kts 92°
2026-04-21 16:11 51.59995 6.14867 115 ft 0 kts 92°